Time,TemperatureF,DewpointF,PressureIn,WindDirection,WindDirectionDegrees,WindSpeedMPH,WindSpeedGustMPH,Humidity,HourlyPrecipIn,Conditions,Clouds,dailyrainin,SoftwareType,DateUTC
2014-12-25 00:04:00,29.8,19.8,30.18,NNW,340,6.0,16.0,66,0.00,,SCT070,0.00,VWS V15.00,2014-12-25 08:04:00,
2014-12-25 00:09:00,29.7,19.8,30.18,NW,311,7.0,16.0,66,0.00,,SCT070,0.00,VWS V15.00,2014-12-25 08:09:00,
2014-12-25 00:14:00,29.7,19.8,30.18,NW,326,5.0,16.0,66,0.00,,SCT070,0.00,VWS V15.00,2014-12-25 08:14:00,
2014-12-25 00:19:00,29.7,19.4,30.18,NW,305,6.0,16.0,65,0.00,,SCT070,0.00,VWS V15.00,2014-12-25 08:19:00,
2014-12-25 00:24:00,29.7,19.4,30.19,North,356,7.0,16.0,65,0.00,,SCT070,0.00,VWS V15.00,2014-12-25 08:24:00,
2014-12-25 00:29:00,29.7,19.4,30.19,NNW,332,7.0,16.0,65,0.00,,SCT070,0.00,VWS V15.00,2014-12-25 08:29:00,
2014-12-25 00:34:00,29.7,19.4,30.18,North,9,3.0,16.0,65,0.00,,SCT070,0.00,VWS V15.00,2014-12-25 08:34:00,
2014-12-25 00:39:00,29.6,19.3,30.18,NW,322,4.0,16.0,65,0.00,,SCT070,0.00,VWS V15.00,2014-12-25 08:39:00,
2014-12-25 00:44:00,29.5,19.2,30.18,NNW,337,5.0,16.0,65,0.00,,SCT070,0.00,VWS V15.00,2014-12-25 08:44:00,
2014-12-25 00:49:00,29.4,19.5,30.18,NNW,342,7.0,16.0,66,0.00,,SCT070,0.00,VWS V15.00,2014-12-25 08:49:00,
2014-12-25 00:54:00,29.4,19.5,30.18,NW,318,4.0,16.0,66,0.00,,SCT070,0.00,VWS V15.00,2014-12-25 08:54:00,
2014-12-25 00:59:00,29.3,19.4,30.18,NNW,328,7.0,16.0,66,0.00,,SCT065,0.00,VWS V15.00,2014-12-25 08:59:00,
2014-12-25 01:04:00,29.3,19.4,30.18,NW,308,5.0,16.0,66,0.00,,SCT065,0.00,VWS V15.00,2014-12-25 09:04:00,
2014-12-25 01:09:00,29.3,19.7,30.19,NW,309,8.0,16.0,67,0.00,,SCT065,0.00,VWS V15.00,2014-12-25 09:09:00,
2014-12-25 01:14:00,29.2,19.6,30.19,NNW,334,7.0,16.0,67,0.00,,SCT065,0.00,VWS V15.00,2014-12-25 09:14:00,
2014-12-25 01:19:00,29.2,19.6,30.19,NNW,348,5.0,16.0,67,0.00,,SCT065,0.00,VWS V15.00,2014-12-25 09:19:00,
2014-12-25 01:24:00,29.0,19.4,30.19,NW,326,5.0,16.0,67,0.00,,SCT065,0.00,VWS V15.00,2014-12-25 09:24:00,
2014-12-25 01:29:00,29.1,19.5,30.19,NNW,334,4.0,16.0,67,0.00,,SCT065,0.00,VWS V15.00,2014-12-25 09:29:00,
2014-12-25 01:33:00,29.1,19.5,30.19,NNW,330,3.0,16.0,67,0.00,,SCT065,0.00,VWS V15.00,2014-12-25 09:33:00,
2014-12-25 01:38:00,29.1,19.5,30.19,NNE,16,5.0,16.0,67,0.00,,SCT065,0.00,VWS V15.00,2014-12-25 09:38:00,
2014-12-25 01:43:00,29.1,19.5,30.19,North,357,5.0,16.0,67,0.00,,SCT065,0.00,VWS V15.00,2014-12-25 09:43:00,
2014-12-25 01:48:00,29.1,19.5,30.20,North,349,6.0,16.0,67,0.00,,SCT065,0.00,VWS V15.00,2014-12-25 09:48:00,
2014-12-25 01:53:00,29.1,19.5,30.20,NNW,339,3.0,16.0,67,0.00,,SCT065,0.00,VWS V15.00,2014-12-25 09:53:00,
2014-12-25 01:58:00,29.2,19.3,30.20,North,8,3.0,9.0,66,0.00,,SCT065,0.00,VWS V15.00,2014-12-25 09:58:00,
2014-12-25 02:03:00,29.2,19.3,30.20,NW,318,5.0,9.0,66,0.00,,SCT065,0.00,VWS V15.00,2014-12-25 10:03:00,
2014-12-25 02:08:00,29.1,19.5,30.20,NNW,335,1.0,9.0,67,0.00,,SCT065,0.00,VWS V15.00,2014-12-25 10:08:00,
2014-12-25 02:13:00,29.0,19.4,30.20,NNW,330,1.0,9.0,67,0.00,,SCT065,0.00,VWS V15.00,2014-12-25 10:13:00,
2014-12-25 02:18:00,28.9,19.3,30.21,NW,305,1.0,9.0,67,0.00,,SCT065,0.00,VWS V15.00,2014-12-25 10:18:00,
2014-12-25 02:23:00,28.8,19.6,30.21,NW,314,1.0,9.0,68,0.00,,SCT065,0.00,VWS V15.00,2014-12-25 10:23:00,
2014-12-25 02:28:00,28.9,19.3,30.21,NW,321,7.0,9.0,67,0.00,,SCT065,0.00,VWS V15.00,2014-12-25 10:28:00,
2014-12-25 02:33:00,29.0,19.4,30.22,NW,311,2.0,9.0,67,0.00,,SCT065,0.00,VWS V15.00,2014-12-25 10:33:00,
2014-12-25 02:38:00,29.2,19.6,30.22,NNW,334,4.0,9.0,67,0.00,,SCT065,0.00,VWS V15.00,2014-12-25 10:38:00,
2014-12-25 02:43:00,29.3,19.7,30.22,North,2,4.0,9.0,67,0.00,,SCT065,0.00,VWS V15.00,2014-12-25 10:43:00,
2014-12-25 02:48:00,29.5,19.6,30.22,NW,310,5.0,9.0,66,0.00,,SCT065,0.00,VWS V15.00,2014-12-25 10:48:00,
2014-12-25 02:53:00,29.5,19.9,30.22,NW,317,3.0,9.0,67,0.00,,SCT065,0.00,VWS V15.00,2014-12-25 10:53:00,
2014-12-25 02:58:00,29.5,19.6,30.22,NNW,335,6.0,9.0,66,0.00,,SCT060,0.00,VWS V15.00,2014-12-25 10:58:00,
2014-12-25 03:03:00,29.4,19.8,30.21,NNW,333,3.0,9.0,67,0.00,,SCT060,0.00,VWS V15.00,2014-12-25 11:03:00,
2014-12-25 03:08:00,29.2,19.6,30.21,NW,308,2.0,9.0,67,0.00,,SCT060,0.00,VWS V15.00,2014-12-25 11:08:00,
2014-12-25 03:13:00,29.0,19.4,30.21,NW,320,3.0,9.0,67,0.00,,SCT060,0.00,VWS V15.00,2014-12-25 11:13:00,
2014-12-25 03:18:00,28.9,19.3,30.21,NNW,338,1.0,9.0,67,0.00,,SCT060,0.00,VWS V15.00,2014-12-25 11:18:00,
2014-12-25 03:23:00,28.8,19.2,30.21,NNW,336,0.0,9.0,67,0.00,,SCT060,0.00,VWS V15.00,2014-12-25 11:23:00,
2014-12-25 03:28:00,28.7,19.5,30.21,NNW,340,2.0,9.0,68,0.00,,SCT060,0.00,VWS V15.00,2014-12-25 11:28:00,
2014-12-25 03:33:00,28.6,19.4,30.21,North,10,3.0,9.0,68,0.00,,SCT060,0.00,VWS V15.00,2014-12-25 11:33:00,
2014-12-25 03:38:00,28.5,19.6,30.20,NNW,339,1.0,9.0,69,0.00,,SCT060,0.00,VWS V15.00,2014-12-25 11:38:00,
2014-12-25 03:43:00,28.4,19.5,30.20,North,4,0.0,9.0,69,0.00,,SCT060,0.00,VWS V15.00,2014-12-25 11:43:00,
2014-12-25 03:48:00,28.2,19.7,30.20,NNW,340,3.0,9.0,70,0.00,,SCT060,0.00,VWS V15.00,2014-12-25 11:48:00,
2014-12-25 03:53:00,28.3,19.8,30.20,NW,315,3.0,9.0,70,0.00,,SCT060,0.00,VWS V15.00,2014-12-25 11:53:00,
2014-12-25 03:58:00,28.4,19.9,30.20,NNW,328,3.0,4.0,70,0.00,,SCT060,0.00,VWS V15.00,2014-12-25 11:58:00,
2014-12-25 04:03:00,28.3,19.8,30.20,North,359,0.0,7.0,70,0.00,,SCT060,0.00,VWS V15.00,2014-12-25 12:03:00,
2014-12-25 04:08:00,28.2,20.0,30.20,NW,307,0.0,7.0,71,0.00,,SCT060,0.00,VWS V15.00,2014-12-25 12:08:00,
2014-12-25 04:13:00,28.0,19.8,30.20,North,351,0.0,7.0,71,0.00,,SCT060,0.00,VWS V15.00,2014-12-25 12:13:00,
2014-12-25 04:18:00,28.0,19.8,30.20,NW,322,2.0,7.0,71,0.00,,SCT060,0.00,VWS V15.00,2014-12-25 12:18:00,
2014-12-25 04:23:00,28.0,19.8,30.20,North,11,1.0,7.0,71,0.00,,SCT060,0.00,VWS V15.00,2014-12-25 12:23:00,
2014-12-25 04:28:00,27.9,19.7,30.21,NNW,345,3.0,7.0,71,0.00,,SCT060,0.00,VWS V15.00,2014-12-25 12:28:00,
2014-12-25 04:33:00,27.8,19.6,30.20,NW,323,2.0,7.0,71,0.00,,SCT060,0.00,VWS V15.00,2014-12-25 12:33:00,
2014-12-25 04:38:00,27.8,19.6,30.20,NNW,335,0.0,7.0,71,0.00,,SCT060,0.00,VWS V15.00,2014-12-25 12:38:00,
2014-12-25 04:43:00,27.7,19.9,30.20,NNW,339,1.0,7.0,72,0.00,,SCT060,0.00,VWS V15.00,2014-12-25 12:43:00,
2014-12-25 04:48:00,27.5,19.7,30.20,NW,322,0.0,7.0,72,0.00,,SCT060,0.00,VWS V15.00,2014-12-25 12:48:00,
2014-12-25 04:53:00,27.3,19.8,30.20,NE,53,0.0,7.0,73,0.00,,SCT060,0.00,VWS V15.00,2014-12-25 12:53:00,
2014-12-25 04:58:00,27.1,19.6,30.21,ENE,74,0.0,7.0,73,0.00,,FEW060,0.00,VWS V15.00,2014-12-25 12:58:00,
2014-12-25 05:03:00,27.3,19.8,30.21,East,84,1.0,7.0,73,0.00,,FEW060,0.00,VWS V15.00,2014-12-25 13:03:00,
2014-12-25 05:08:00,27.6,19.8,30.21,ENE,74,0.0,7.0,72,0.00,,FEW060,0.00,VWS V15.00,2014-12-25 13:08:00,
2014-12-25 05:13:00,28.0,19.8,30.21,SE,124,0.0,7.0,71,0.00,,FEW060,0.00,VWS V15.00,2014-12-25 13:13:00,
2014-12-25 05:18:00,28.3,19.8,30.21,East,96,0.0,7.0,70,0.00,,FEW060,0.00,VWS V15.00,2014-12-25 13:18:00,
2014-12-25 05:23:00,28.3,19.8,30.21,SE,129,0.0,7.0,70,0.00,,FEW060,0.00,VWS V15.00,2014-12-25 13:23:00,
2014-12-25 05:28:00,28.3,19.5,30.21,SE,143,0.0,7.0,69,0.00,,FEW060,0.00,VWS V15.00,2014-12-25 13:28:00,
2014-12-25 05:33:00,28.4,19.5,30.21,East,90,0.0,7.0,69,0.00,,FEW060,0.00,VWS V15.00,2014-12-25 13:33:00,
2014-12-25 05:38:00,28.4,19.5,30.21,East,91,0.0,7.0,69,0.00,,FEW060,0.00,VWS V15.00,2014-12-25 13:38:00,
2014-12-25 05:43:00,28.4,19.5,30.21,NE,45,2.0,11.0,69,0.00,,FEW060,0.00,VWS V15.00,2014-12-25 13:43:00,
2014-12-25 05:48:00,28.6,19.7,30.21,NE,44,0.0,11.0,69,0.00,,FEW060,0.00,VWS V15.00,2014-12-25 13:48:00,
2014-12-25 05:53:00,28.6,19.7,30.22,ENE,63,2.0,11.0,69,0.00,,FEW060,0.00,VWS V15.00,2014-12-25 13:53:00,
2014-12-25 05:58:00,28.6,19.7,30.22,NE,37,1.0,9.0,69,0.00,,FEW060,0.00,VWS V15.00,2014-12-25 13:58:00,
2014-12-25 06:03:00,28.8,19.9,30.22,ENE,62,1.0,9.0,69,0.00,,SCT070,0.00,VWS V15.00,2014-12-25 14:03:00,
2014-12-25 06:08:00,28.9,20.0,30.23,ENE,75,3.0,9.0,69,0.00,,SCT070,0.00,VWS V15.00,2014-12-25 14:08:00,
2014-12-25 06:13:00,28.8,19.9,30.23,ENE,74,0.0,9.0,69,0.00,,SCT070,0.00,VWS V15.00,2014-12-25 14:13:00,
2014-12-25 06:18:00,28.8,20.3,30.23,ESE,106,1.0,9.0,70,0.00,,SCT070,0.00,VWS V15.00,2014-12-25 14:18:00,
2014-12-25 06:23:00,28.8,20.3,30.23,NNE,15,2.0,9.0,70,0.00,,SCT070,0.00,VWS V15.00,2014-12-25 14:23:00,
2014-12-25 06:28:00,28.8,20.3,30.23,East,80,0.0,9.0,70,0.00,,SCT070,0.00,VWS V15.00,2014-12-25 14:28:00,
2014-12-25 06:33:00,28.8,20.3,30.22,NE,41,4.0,9.0,70,0.00,,SCT070,0.00,VWS V15.00,2014-12-25 14:33:00,
2014-12-25 06:37:00,28.8,19.9,30.22,North,1,3.0,9.0,69,0.00,,SCT070,0.00,VWS V15.00,2014-12-25 14:37:00,
2014-12-25 06:42:00,28.7,20.2,30.22,NNW,338,3.0,9.0,70,0.00,,SCT070,0.00,VWS V15.00,2014-12-25 14:42:00,
2014-12-25 06:47:00,28.4,19.9,30.22,NW,326,2.0,9.0,70,0.00,,SCT070,0.00,VWS V15.00,2014-12-25 14:47:00,
2014-12-25 06:52:00,28.2,20.0,30.22,North,351,0.0,9.0,71,0.00,,SCT070,0.00,VWS V15.00,2014-12-25 14:52:00,
2014-12-25 06:57:00,27.9,20.1,30.22,ENE,72,1.0,9.0,72,0.00,,SCT070,0.00,VWS V15.00,2014-12-25 14:57:00,
2014-12-25 07:02:00,27.8,20.0,30.22,NE,41,1.0,9.0,72,0.00,,BKN070,0.00,VWS V15.00,2014-12-25 15:02:00,
2014-12-25 07:07:00,27.7,19.9,30.22,NE,49,0.0,9.0,72,0.00,,BKN070,0.00,VWS V15.00,2014-12-25 15:07:00,
2014-12-25 07:12:00,27.7,20.2,30.22,NNE,25,0.0,9.0,73,0.00,,BKN070,0.00,VWS V15.00,2014-12-25 15:12:00,
2014-12-25 07:17:00,27.5,20.0,30.22,NNW,348,1.0,9.0,73,0.00,,BKN070,0.00,VWS V15.00,2014-12-25 15:17:00,
2014-12-25 07:22:00,27.7,20.2,30.22,North,11,4.0,9.0,73,0.00,,BKN070,0.00,VWS V15.00,2014-12-25 15:22:00,
2014-12-25 07:27:00,28.2,20.0,30.22,NNE,32,3.0,9.0,71,0.00,,BKN070,0.00,VWS V15.00,2014-12-25 15:27:00,
2014-12-25 07:32:00,28.5,20.0,30.22,North,353,3.0,11.0,70,0.00,,BKN070,0.00,VWS V15.00,2014-12-25 15:32:00,
2014-12-25 07:37:00,28.6,20.1,30.23,NNE,23,3.0,11.0,70,0.00,,BKN070,0.00,VWS V15.00,2014-12-25 15:37:00,
2014-12-25 07:42:00,28.8,20.3,30.23,NNE,30,4.0,11.0,70,0.00,,BKN070,0.00,VWS V15.00,2014-12-25 15:42:00,
2014-12-25 07:47:00,29.0,20.1,30.23,NNW,343,3.0,11.0,69,0.00,,BKN070,0.00,VWS V15.00,2014-12-25 15:47:00,
2014-12-25 07:52:00,29.1,20.2,30.23,NNE,15,6.0,11.0,69,0.00,,BKN070,0.00,VWS V15.00,2014-12-25 15:52:00,
2014-12-25 07:57:00,29.2,20.3,30.23,NNE,15,4.0,7.0,69,0.00,,BKN070,0.00,VWS V15.00,2014-12-25 15:57:00,
2014-12-25 08:02:00,29.2,20.3,30.23,NW,326,0.0,7.0,69,0.00,,BKN070,0.00,VWS V15.00,2014-12-25 16:02:00,
2014-12-25 08:07:00,29.3,20.4,30.24,NNE,23,5.0,7.0,69,0.00,,BKN070,0.00,VWS V15.00,2014-12-25 16:07:00,
2014-12-25 08:12:00,29.3,20.4,30.24,NW,325,2.0,8.0,69,0.00,,BKN070,0.00,VWS V15.00,2014-12-25 16:12:00,
2014-12-25 08:17:00,29.3,20.4,30.24,NNW,340,6.0,10.0,69,0.00,,BKN070,0.00,VWS V15.00,2014-12-25 16:17:00,
2014-12-25 08:22:00,29.3,20.4,30.25,North,349,6.0,10.0,69,0.00,,BKN070,0.00,VWS V15.00,2014-12-25 16:22:00,
2014-12-25 08:27:00,29.3,20.4,30.25,North,11,3.0,10.0,69,0.00,,BKN070,0.00,VWS V15.00,2014-12-25 16:27:00,
2014-12-25 08:32:00,29.3,20.7,30.25,East,85,2.0,10.0,70,0.00,,BKN070,0.00,VWS V15.00,2014-12-25 16:32:00,
2014-12-25 08:37:00,29.3,20.7,30.26,NNE,32,2.0,10.0,70,0.00,,BKN070,0.00,VWS V15.00,2014-12-25 16:37:00,
2014-12-25 08:42:00,29.3,20.4,30.26,NW,321,2.0,10.0,69,0.00,,BKN070,0.00,VWS V15.00,2014-12-25 16:42:00,
2014-12-25 08:47:00,29.4,20.5,30.26,North,356,3.0,10.0,69,0.00,,BKN070,0.00,VWS V15.00,2014-12-25 16:47:00,
2014-12-25 08:52:00,29.4,20.5,30.26,NNW,334,3.0,10.0,69,0.00,,BKN070,0.00,VWS V15.00,2014-12-25 16:52:00,
2014-12-25 08:57:00,29.6,20.7,30.26,NNE,30,2.0,10.0,69,0.00,,BKN070,0.00,VWS V15.00,2014-12-25 16:57:00,
2014-12-25 09:02:00,29.7,20.5,30.26,NE,40,1.0,10.0,68,0.00,,BKN070,0.00,VWS V15.00,2014-12-25 17:02:00,
2014-12-25 09:07:00,29.8,20.9,30.26,East,96,0.0,10.0,69,0.00,,BKN070,0.00,VWS V15.00,2014-12-25 17:07:00,
2014-12-25 09:12:00,30.0,20.7,30.26,ENE,71,0.0,10.0,68,0.00,,BKN070,0.00,VWS V15.00,2014-12-25 17:12:00,
2014-12-25 09:17:00,30.2,21.3,30.26,NNW,342,2.0,10.0,69,0.00,,BKN070,0.00,VWS V15.00,2014-12-25 17:17:00,
2014-12-25 09:22:00,30.4,20.8,30.27,NNW,338,2.0,12.0,67,0.00,,BKN070,0.00,VWS V15.00,2014-12-25 17:22:00,
2014-12-25 09:27:00,30.3,20.7,30.27,WNW,294,8.0,18.0,67,0.00,,BKN070,0.00,VWS V15.00,2014-12-25 17:27:00,
2014-12-25 09:32:00,30.4,20.8,30.27,NW,310,4.0,18.0,67,0.00,,BKN070,0.00,VWS V15.00,2014-12-25 17:32:00,
2014-12-25 09:37:00,30.5,20.9,30.26,NW,312,7.0,18.0,67,0.00,,BKN070,0.00,VWS V15.00,2014-12-25 17:37:00,
2014-12-25 09:42:00,30.7,21.1,30.26,NNE,25,9.0,18.0,67,0.00,,BKN070,0.00,VWS V15.00,2014-12-25 17:42:00,
2014-12-25 09:47:00,31.0,21.3,30.26,North,349,9.0,18.0,67,0.00,,BKN070,0.00,VWS V15.00,2014-12-25 17:47:00,
2014-12-25 09:52:00,31.0,20.6,30.26,NNW,332,6.0,18.0,65,0.00,,BKN070,0.00,VWS V15.00,2014-12-25 17:52:00,
2014-12-25 09:57:00,31.0,20.6,30.27,NW,308,14.0,16.0,65,0.00,,BKN070,0.00,VWS V15.00,2014-12-25 17:57:00,
2014-12-25 10:02:00,31.0,21.0,30.27,NW,309,7.0,16.0,66,0.00,,BKN065,0.00,VWS V15.00,2014-12-25 18:02:00,
2014-12-25 10:07:00,30.9,20.5,30.27,NW,326,9.0,16.0,65,0.00,,BKN065,0.00,VWS V15.00,2014-12-25 18:07:00,
2014-12-25 10:12:00,31.0,21.0,30.27,NNW,332,7.0,16.0,66,0.00,,BKN065,0.00,VWS V15.00,2014-12-25 18:12:00,
2014-12-25 10:17:00,31.1,21.1,30.27,North,352,8.0,16.0,66,0.00,,BKN065,0.00,VWS V15.00,2014-12-25 18:17:00,
2014-12-25 10:22:00,31.3,20.9,30.27,NW,317,8.0,16.0,65,0.00,,BKN065,0.00,VWS V15.00,2014-12-25 18:22:00,
2014-12-25 10:27:00,31.4,21.0,30.27,NNE,20,4.0,16.0,65,0.00,,BKN065,0.00,VWS V15.00,2014-12-25 18:27:00,
2014-12-25 10:32:00,31.5,20.7,30.27,NNW,344,9.0,16.0,64,0.00,,BKN065,0.00,VWS V15.00,2014-12-25 18:32:00,
2014-12-25 10:37:00,31.5,20.7,30.27,NW,312,9.0,16.0,64,0.00,,BKN065,0.00,VWS V15.00,2014-12-25 18:37:00,
2014-12-25 10:42:00,31.6,20.8,30.27,NNW,335,9.0,16.0,64,0.00,,BKN065,0.00,VWS V15.00,2014-12-25 18:42:00,
2014-12-25 10:47:00,32.0,21.6,30.26,North,4,10.0,16.0,65,0.00,,BKN065,0.00,VWS V15.00,2014-12-25 18:47:00,
2014-12-25 10:52:00,32.0,20.9,30.26,NNW,333,6.0,16.0,63,0.00,,BKN065,0.00,VWS V15.00,2014-12-25 18:52:00,
2014-12-25 10:57:00,32.3,21.5,30.26,North,7,4.0,16.0,64,0.00,,BKN065,0.00,VWS V15.00,2014-12-25 18:57:00,
2014-12-25 11:02:00,32.1,20.9,30.26,WNW,302,12.0,17.0,63,0.00,,BKN060,0.00,VWS V15.00,2014-12-25 19:02:00,
2014-12-25 11:07:00,32.1,21.3,30.26,WNW,303,6.0,17.0,64,0.00,,BKN060,0.00,VWS V15.00,2014-12-25 19:07:00,
2014-12-25 11:12:00,32.1,21.3,30.26,NNW,328,9.0,17.0,64,0.00,,BKN060,0.00,VWS V15.00,2014-12-25 19:12:00,
2014-12-25 11:17:00,32.3,21.9,30.26,NW,321,11.0,17.0,65,0.00,,BKN060,0.00,VWS V15.00,2014-12-25 19:17:00,
2014-12-25 11:22:00,32.4,21.6,30.26,NNE,23,8.0,17.0,64,0.00,,BKN060,0.00,VWS V15.00,2014-12-25 19:22:00,
2014-12-25 11:27:00,32.4,21.6,30.26,NW,308,7.0,17.0,64,0.00,,BKN060,0.00,VWS V15.00,2014-12-25 19:27:00,
2014-12-25 11:32:00,32.7,21.9,30.26,North,352,6.0,17.0,64,0.00,,BKN060,0.00,VWS V15.00,2014-12-25 19:32:00,
2014-12-25 11:37:00,32.7,21.5,30.26,North,4,8.0,17.0,63,0.00,,BKN060,0.00,VWS V15.00,2014-12-25 19:37:00,
2014-12-25 11:42:00,32.9,21.3,30.26,NW,308,11.0,17.0,62,0.00,,BKN060,0.00,VWS V15.00,2014-12-25 19:42:00,
2014-12-25 11:47:00,32.8,21.6,30.26,NNW,331,7.0,17.0,63,0.00,,BKN060,0.00,VWS V15.00,2014-12-25 19:47:00,
2014-12-25 11:51:00,33.1,21.1,30.26,NNW,334,7.0,17.0,61,0.00,,BKN060,0.00,VWS V15.00,2014-12-25 19:51:00,
2014-12-25 11:56:00,33.3,21.3,30.26,NNW,340,11.0,13.0,61,0.00,,BKN060,0.00,VWS V15.00,2014-12-25 19:56:00,
2014-12-25 12:01:00,33.5,20.3,30.26,North,360,7.0,13.0,58,0.00,,BKN060,0.00,VWS V15.00,2014-12-25 20:01:00,
2014-12-25 12:06:00,33.7,20.5,30.26,North,358,5.0,13.0,58,0.00,,BKN060,0.00,VWS V15.00,2014-12-25 20:06:00,
2014-12-25 12:11:00,33.8,20.2,30.26,North,2,5.0,13.0,57,0.00,,BKN060,0.00,VWS V15.00,2014-12-25 20:11:00,
2014-12-25 12:16:00,33.7,20.1,30.26,NNE,24,11.0,13.0,57,0.00,,BKN060,0.00,VWS V15.00,2014-12-25 20:16:00,
2014-12-25 12:21:00,33.6,20.0,30.26,NNW,330,6.0,13.0,57,0.00,,BKN060,0.00,VWS V15.00,2014-12-25 20:21:00,
2014-12-25 12:26:00,33.7,19.7,30.26,NNW,332,5.0,16.0,56,0.00,,BKN060,0.00,VWS V15.00,2014-12-25 20:26:00,
2014-12-25 12:31:00,33.8,20.6,30.26,NE,34,6.0,16.0,58,0.00,,BKN060,0.00,VWS V15.00,2014-12-25 20:31:00,
2014-12-25 12:36:00,33.7,20.1,30.26,NE,34,5.0,16.0,57,0.00,,BKN060,0.00,VWS V15.00,2014-12-25 20:36:00,
2014-12-25 12:41:00,33.9,19.5,30.26,NNE,18,9.0,16.0,55,0.00,,BKN060,0.00,VWS V15.00,2014-12-25 20:41:00,
2014-12-25 12:46:00,33.8,20.6,30.26,NW,324,7.0,16.0,58,0.00,,BKN060,0.00,VWS V15.00,2014-12-25 20:46:00,
2014-12-25 12:51:00,33.7,21.3,30.26,NW,316,5.0,16.0,60,0.00,,BKN060,0.00,VWS V15.00,2014-12-25 20:51:00,
2014-12-25 12:56:00,33.6,20.8,30.26,NW,316,6.0,16.0,59,0.00,,BKN060,0.00,VWS V15.00,2014-12-25 20:56:00,
2014-12-25 13:01:00,33.7,20.1,30.26,NNE,26,8.0,16.0,57,0.00,,OVC065,0.00,VWS V15.00,2014-12-25 21:01:00,
2014-12-25 13:06:00,34.0,20.0,30.26,NNW,342,9.0,16.0,56,0.00,,OVC065,0.00,VWS V15.00,2014-12-25 21:06:00,
2014-12-25 13:11:00,34.0,20.0,30.26,NNE,23,10.0,16.0,56,0.00,,OVC065,0.00,VWS V15.00,2014-12-25 21:11:00,
2014-12-25 13:16:00,33.9,19.9,30.26,North,5,6.0,16.0,56,0.00,,OVC065,0.00,VWS V15.00,2014-12-25 21:16:00,
2014-12-25 13:21:00,34.0,20.4,30.25,North,350,6.0,16.0,57,0.00,,OVC065,0.00,VWS V15.00,2014-12-25 21:21:00,
2014-12-25 13:26:00,34.3,20.2,30.25,North,3,6.0,16.0,56,0.00,,OVC065,0.00,VWS V15.00,2014-12-25 21:26:00,
2014-12-25 13:31:00,34.3,19.8,30.25,North,9,7.0,16.0,55,0.00,,OVC065,0.00,VWS V15.00,2014-12-25 21:31:00,
2014-12-25 13:36:00,34.2,19.7,30.26,NNW,347,8.0,16.0,55,0.00,,OVC065,0.00,VWS V15.00,2014-12-25 21:36:00,
2014-12-25 13:41:00,34.2,20.1,30.25,NW,318,7.0,16.0,56,0.00,,OVC065,0.00,VWS V15.00,2014-12-25 21:41:00,
2014-12-25 13:46:00,34.3,20.7,30.25,NW,317,9.0,16.0,57,0.00,,OVC065,0.00,VWS V15.00,2014-12-25 21:46:00,
2014-12-25 13:51:00,34.4,20.8,30.25,NW,320,5.0,16.0,57,0.00,,OVC065,0.00,VWS V15.00,2014-12-25 21:51:00,
2014-12-25 13:56:00,34.1,20.5,30.25,NNW,332,9.0,11.0,57,0.00,,OVC065,0.00,VWS V15.00,2014-12-25 21:56:00,
2014-12-25 14:01:00,34.1,20.9,30.26,NNW,339,9.0,11.0,58,0.00,,BKN090,0.00,VWS V15.00,2014-12-25 22:01:00,
2014-12-25 14:06:00,33.9,21.1,30.26,NNE,13,11.0,11.0,59,0.00,,BKN090,0.00,VWS V15.00,2014-12-25 22:06:00,
2014-12-25 14:11:00,34.0,21.2,30.26,North,4,3.0,11.0,59,0.00,,BKN090,0.00,VWS V15.00,2014-12-25 22:11:00,
2014-12-25 14:16:00,34.2,21.0,30.26,NW,316,7.0,11.0,58,0.00,,BKN090,0.00,VWS V15.00,2014-12-25 22:16:00,
2014-12-25 14:21:00,34.1,20.9,30.26,NNW,335,5.0,11.0,58,0.00,,BKN090,0.00,VWS V15.00,2014-12-25 22:21:00,
2014-12-25 14:26:00,34.1,22.1,30.26,NNW,347,4.0,11.0,61,0.00,,BKN090,0.00,VWS V15.00,2014-12-25 22:26:00,
2014-12-25 14:31:00,34.3,21.9,30.26,NNE,20,5.0,11.0,60,0.00,,BKN090,0.00,VWS V15.00,2014-12-25 22:31:00,
2014-12-25 14:36:00,34.4,22.0,30.26,NNE,33,4.0,11.0,60,0.00,,BKN090,0.00,VWS V15.00,2014-12-25 22:36:00,
2014-12-25 14:41:00,34.4,20.8,30.26,NNW,347,3.0,11.0,57,0.00,,BKN090,0.00,VWS V15.00,2014-12-25 22:41:00,
2014-12-25 14:46:00,34.4,20.8,30.26,NNW,341,9.0,13.0,57,0.00,,BKN090,0.00,VWS V15.00,2014-12-25 22:46:00,
2014-12-25 14:51:00,34.5,20.9,30.27,NNW,345,6.0,15.0,57,0.00,,BKN090,0.00,VWS V15.00,2014-12-25 22:51:00,
2014-12-25 14:56:00,34.7,21.0,30.27,NNW,346,6.0,15.0,57,0.00,,BKN090,0.00,VWS V15.00,2014-12-25 22:56:00,
2014-12-25 15:01:00,34.7,21.0,30.27,NNW,340,3.0,15.0,57,0.00,,BKN090,0.00,VWS V15.00,2014-12-25 23:01:00,
2014-12-25 15:06:00,34.7,21.0,30.27,NNE,18,6.0,15.0,57,0.00,,BKN090,0.00,VWS V15.00,2014-12-25 23:06:00,
2014-12-25 15:11:00,34.7,20.6,30.27,NW,321,6.0,15.0,56,0.00,,BKN090,0.00,VWS V15.00,2014-12-25 23:11:00,
2014-12-25 15:16:00,34.6,21.0,30.27,NNW,347,6.0,15.0,57,0.00,,BKN090,0.00,VWS V15.00,2014-12-25 23:16:00,
2014-12-25 15:21:00,34.4,19.5,30.27,NNE,15,8.0,15.0,54,0.00,,BKN090,0.00,VWS V15.00,2014-12-25 23:21:00,
2014-12-25 15:26:00,34.3,19.8,30.27,NNW,346,10.0,15.0,55,0.00,,BKN090,0.00,VWS V15.00,2014-12-25 23:26:00,
2014-12-25 15:31:00,34.1,20.1,30.28,NNW,330,2.0,15.0,56,0.00,,BKN090,0.00,VWS V15.00,2014-12-25 23:31:00,
2014-12-25 15:36:00,34.1,20.9,30.28,NNW,344,5.0,15.0,58,0.00,,BKN090,0.00,VWS V15.00,2014-12-25 23:36:00,
2014-12-25 15:41:00,34.1,20.9,30.27,North,352,6.0,15.0,58,0.00,,BKN090,0.00,VWS V15.00,2014-12-25 23:41:00,
2014-12-25 15:46:00,34.0,20.8,30.27,NNW,331,6.0,15.0,58,0.00,,BKN090,0.00,VWS V15.00,2014-12-25 23:46:00,
2014-12-25 15:51:00,33.9,21.1,30.27,WNW,302,4.0,15.0,59,0.00,,BKN090,0.00,VWS V15.00,2014-12-25 23:51:00,
2014-12-25 15:56:00,33.8,20.6,30.28,NE,34,4.0,5.0,58,0.00,,BKN090,0.00,VWS V15.00,2014-12-25 23:56:00,
2014-12-25 16:01:00,33.7,20.5,30.28,NE,39,4.0,8.0,58,0.00,,BKN090,0.00,VWS V15.00,2014-12-26 00:01:00,
2014-12-25 16:06:00,33.5,20.3,30.28,North,349,4.0,11.0,58,0.00,,BKN090,0.00,VWS V15.00,2014-12-26 00:06:00,
2014-12-25 16:11:00,33.4,20.6,30.29,NW,319,9.0,11.0,59,0.00,,BKN090,0.00,VWS V15.00,2014-12-26 00:11:00,
2014-12-25 16:16:00,33.2,21.6,30.29,NNW,345,6.0,11.0,62,0.00,,BKN090,0.00,VWS V15.00,2014-12-26 00:16:00,
2014-12-25 16:21:00,33.1,22.3,30.29,NNW,328,5.0,11.0,64,0.00,,BKN090,0.00,VWS V15.00,2014-12-26 00:21:00,
2014-12-25 16:26:00,33.0,22.2,30.29,NNW,338,4.0,11.0,64,0.00,,BKN090,0.00,VWS V15.00,2014-12-26 00:26:00,
2014-12-25 16:31:00,33.0,21.8,30.29,NNW,342,5.0,11.0,63,0.00,,BKN090,0.00,VWS V15.00,2014-12-26 00:31:00,
2014-12-25 16:36:00,33.0,21.8,30.29,NNW,345,0.0,11.0,63,0.00,,BKN090,0.00,VWS V15.00,2014-12-26 00:36:00,
2014-12-25 16:41:00,32.8,21.6,30.29,NNW,333,4.0,11.0,63,0.00,,BKN090,0.00,VWS V15.00,2014-12-26 00:41:00,
2014-12-25 16:46:00,32.7,21.9,30.29,North,359,4.0,11.0,64,0.00,,BKN090,0.00,VWS V15.00,2014-12-26 00:46:00,
2014-12-25 16:51:00,32.5,21.7,30.30,North,354,4.0,11.0,64,0.00,,BKN090,0.00,VWS V15.00,2014-12-26 00:51:00,
2014-12-25 16:55:00,32.3,21.5,30.29,NNW,341,4.0,11.0,64,0.00,,BKN090,0.00,VWS V15.00,2014-12-26 00:55:00,
2014-12-25 17:00:00,32.2,21.4,30.30,NNW,344,2.0,11.0,64,0.00,,SCT060,0.00,VWS V15.00,2014-12-26 01:00:00,
2014-12-25 17:05:00,32.4,20.9,30.30,NNW,336,3.0,11.0,62,0.00,,SCT060,0.00,VWS V15.00,2014-12-26 01:05:00,
2014-12-25 17:10:00,32.6,20.7,30.30,NNW,347,4.0,11.0,61,0.00,,SCT060,0.00,VWS V15.00,2014-12-26 01:10:00,
2014-12-25 17:15:00,32.6,20.7,30.30,NW,321,5.0,11.0,61,0.00,,SCT060,0.00,VWS V15.00,2014-12-26 01:15:00,
2014-12-25 17:20:00,32.6,20.7,30.30,NNE,20,3.0,11.0,61,0.00,,SCT060,0.00,VWS V15.00,2014-12-26 01:20:00,